Location: Moscow Pond
(43.6842°N, 73.2366°W)
Time: 23:23:43
(UTC+00:00)

SL-16 R/B - Pass Details

Date: 08 November 2025
Orbit: 841 x 844 km, 71.0° (Epoch: 05 December)

Event Time Altitude Azimuth Distance (km) Brightness Sun altitude
Exits shadow 09:11:44 13° 350° (N) 2,284 4.3 -26.7°
Drops below altitude 10° 09:12:35 10° 357° (N) 2,473 4.6 -26.6°
Sets 09:15:51 0° 16° (NNE) 3,413 5.6 -26.0°
